QPF
0.00 0.00 0.00 0.00 0.00 0.00 0.00 0.00 0.00 0.00 0.00 0.00 0.00 0.00 0.00 0.00 0.00 0.00 0.00 0.00 0.00 0.00 0.00 0.00 0.00 0.00 0.00 0.00 0.00 0.00 0.00 0.00 0.00 0.00 0.00 0.00 0.00 0.00 0.00 0.00 0.00 0.00 0.00 0.00 0.00 0.00 0.00 0.00 0.00
0.00 0.00 0.00 0.00 0.00 0.00 0.00 0.00 0.00 0.00 0.00 0.00 0.00 0.00 0.00 0.00 0.00 0.00 0.00 0.00 0.00 0.00 0.00 0.00 0.00 0.00 0.00 0.00 0.00 0.00 0.00 0.00 0.00 0.00 0.00 0.00 0.00 0.00 0.00 0.00 0.00 0.00 0.00 0.00 0.00 0.00 0.00 0.00 0.00
0.00 0.00 0.00 0.00 0.00 0.00 0.00 0.00 0.00 0.00 0.00 0.00 0.00 0.00 0.00 0.00 0.00 0.00 0.00 0.00 0.00 0.00 0.00 0.00 0.00 0.00 0.00 0.00 0.00 0.00 0.00 0.00 0.00 0.00 0.00 0.00 0.00 0.00 0.00 0.00 0.00 0.00 0.00 0.00 0.00 0.00 0.00 0.00 0.00
0.00 0.00 0.00 0.00 0.00 0.00 0.00 0.00 0.00 0.00 0.00 0.00 0.00 0.00 0.00 0.00 0.00 0.00 0.00 0.00 0.00 0.00 0.00 0.00 0.00 0.00 0.00 0.00 0.00 0.00 0.00 0.00 0.00 0.00 0.00 0.00 0.00 0.00 0.00 0.00 0.00 0.00 0.00 0.00 0.00 0.00 0.00 0.00 0.00
0.00 0.00 0.00 0.00 0.00 0.00 0.00 0.00 0.00 0.00 0.00 0.00 0.00 0.00 0.00 0.00 0.00 0.00 0.00 0.00 0.00 0.00 0.00 0.00 0.00 0.00 0.00 0.00 0.00 0.00 0.00 0.00 0.00 0.00 0.00 0.00 0.00 0.00 0.00 0.00 0.00 0.00 0.00 0.00 0.00 0.00 0.00 0.00 0.00
0.00 0.00 0.00 0.00 0.00 0.00 0.00 0.00 0.00 0.00 0.00 0.00 0.00 0.00 0.00 0.00 0.00 0.00 0.00 0.00 0.00 0.00 0.00 0.00 0.00 0.00 0.00 0.00 0.00 0.00 0.00 0.00 0.00 0.00 0.00 0.00 0.00 0.00 0.00 0.00 0.00 0.00 0.00 0.00 0.00 0.00 0.00 0.00 0.00
0.00 0.00 0.00 0.00 0.00 0.00 0.00 0.00 0.00 0.00 0.00 0.00 0.00 0.00 0.00 0.00 0.00 0.00 0.00 0.00 0.00 0.00 0.00 0.00 0.00 0.00 0.00 0.00 0.00 0.00 0.00 0.00 0.00 0.00 0.00 0.00 0.00 0.00 0.00 0.00 0.00 0.00 0.00 0.00 0.00 0.00 0.00 0.00 0.00
0.00 0.00 0.00 0.00 0.00 0.00 0.00 0.00 0.00 0.00 0.00 0.00 0.00 0.00 0.00 0.00 0.00 0.00 0.00 0.00 0.00 0.00 0.00 0.00 0.00 0.00 0.00 0.00 0.00 0.00 0.01 0.00 0.00 0.01 0.01 0.01 0.01 0.01 0.01 0.01 0.01 0.00 0.00 0.00 0.01 0.01 0.01 0.01 0.01
0.00 0.00 0.00 0.00 0.00 0.00 0.00 0.00 0.00 0.00 0.00 0.00 0.00 0.00 0.00 0.00 0.00 0.00 0.00 0.00 0.00 0.00 0.00 0.00 0.00 0.00 0.01 0.01 0.01 0.01 0.01 0.01 0.01 0.02 0.02 0.03 0.03 0.02 0.02 0.02 0.02 0.01 0.01 0.01 0.03 0.06 0.07 0.06 0.04
0.00 0.00 0.00 0.00 0.00 0.00 0.00 0.00 0.00 0.00 0.00 0.00 0.00 0.00 0.00 0.00 0.00 0.00 0.00 0.00 0.00 0.00 0.00 0.00 0.00 0.01 0.01 0.01 0.01 0.02 0.01 0.02 0.02 0.03 0.03 0.06 0.07 0.05 0.04 0.03 0.03 0.03 0.03 0.03 0.07 0.11 0.10 0.09 0.07
0.00 0.00 0.00 0.00 0.00 0.00 0.00 0.00 0.00 0.00 0.00 0.00 0.00 0.00 0.00 0.00 0.00 0.00 0.00 0.00 0.00 0.00 0.00 0.00 0.01 0.01 0.01 0.03 0.04 0.03 0.02 0.02 0.03 0.03 0.04 0.05 0.06 0.07 0.05 0.05 0.04 0.05 0.06 0.06 0.10 0.13 0.10 0.14 0.18
0.00 0.00 0.00 0.00 0.00 0.00 0.00 0.00 0.00 0.00 0.00 0.00 0.00 0.00 0.00 0.00 0.00 0.00 0.00 0.00 0.00 0.00 0.00 0.01 0.01 0.02 0.03 0.05 0.03 0.02 0.02 0.03 0.04 0.04 0.06 0.07 0.09 0.09 0.08 0.08 0.08 0.08 0.07 0.10 0.13 0.14 0.17 0.21 0.20
0.00 0.00 0.00 0.00 0.00 0.00 0.00 0.00 0.00 0.00 0.00 0.00 0.00 0.00 0.00 0.00 0.00 0.00 0.00 0.00 0.01 0.00 0.00 0.00 0.01 0.02 0.02 0.02 0.02 0.02 0.02 0.03 0.03 0.05 0.07 0.10 0.11 0.09 0.07 0.07 0.09 0.08 0.08 0.10 0.12 0.17 0.20 0.22 0.22
0.00 0.00 0.00 0.00 0.00 0.00 0.00 0.00 0.00 0.00 0.00 0.00 0.00 0.00 0.00 0.00 0.00 0.00 0.00 0.01 0.01 0.01 0.01 0.02 0.02 0.03 0.03 0.04 0.05 0.04 0.03 0.04 0.05 0.07 0.09 0.12 0.14 0.14 0.13 0.10 0.09 0.09 0.11 0.13 0.13 0.15 0.19 0.20 0.21
0.00 0.00 0.00 0.00 0.00 0.00 0.00 0.00 0.00 0.00 0.00 0.00 0.00 0.00 0.00 0.00 0.00 0.00 0.01 0.01 0.02 0.02 0.02 0.05 0.07 0.08 0.08 0.07 0.07 0.07 0.07 0.08 0.12 0.16 0.23 0.23 0.18 0.16 0.13 0.11 0.10 0.11 0.12 0.10 0.10 0.10 0.14 0.15 0.17
0.00 0.00 0.00 0.00 0.00 0.00 0.00 0.00 0.00 0.00 0.00 0.00 0.00 0.00 0.00 0.00 0.00 0.01 0.01 0.02 0.03 0.04 0.07 0.12 0.16 0.14 0.14 0.15 0.18 0.20 0.18 0.17 0.21 0.32 0.43 0.34 0.25 0.21 0.18 0.16 0.14 0.13 0.11 0.09 0.08 0.09 0.10 0.10 0.11
0.00 0.00 0.00 0.00 0.00 0.00 0.00 0.00 0.00 0.00 0.00 0.00 0.00 0.00 0.00 0.00 0.01 0.01 0.02 0.04 0.07 0.12 0.17 0.19 0.16 0.16 0.19 0.22 0.32 0.32 0.27 0.26 0.29 0.33 0.37 0.32 0.32 0.30 0.27 0.23 0.21 0.18 0.13 0.09 0.07 0.06 0.06 0.06 0.07
0.00 0.00 0.00 0.00 0.00 0.00 0.00 0.00 0.00 0.00 0.00 0.00 0.00 0.00 0.01 0.01 0.02 0.02 0.04 0.06 0.09 0.14 0.17 0.18 0.16 0.16 0.18 0.23 0.29 0.31 0.31 0.34 0.35 0.34 0.36 0.34 0.34 0.32 0.29 0.26 0.20 0.14 0.09 0.07 0.06 0.04 0.03 0.04 0.05
0.00 0.00 0.00 0.00 0.00 0.00 0.00 0.00 0.00 0.00 0.00 0.00 0.01 0.01 0.02 0.03 0.03 0.03 0.05 0.07 0.07 0.09 0.11 0.11 0.11 0.14 0.18 0.23 0.28 0.31 0.32 0.31 0.29 0.29 0.30 0.30 0.29 0.29 0.26 0.23 0.19 0.12 0.07 0.05 0.04 0.03 0.02 0.02 0.02
0.00 0.00 0.00 0.00 0.00 0.00 0.00 0.00 0.00 0.00 0.01 0.01 0.02 0.02 0.02 0.02 0.03 0.04 0.06 0.07 0.07 0.08 0.09 0.11 0.13 0.16 0.20 0.22 0.26 0.29 0.33 0.36 0.35 0.35 0.36 0.36 0.28 0.22 0.20 0.16 0.13 0.11 0.07 0.04 0.03 0.02 0.02 0.02 0.02
0.00 0.00 0.00 0.00 0.00 0.00 0.00 0.01 0.00 0.00 0.01 0.01 0.01 0.01 0.01 0.02 0.03 0.04 0.05 0.07 0.09 0.10 0.10 0.11 0.15 0.14 0.15 0.19 0.23 0.26 0.26 0.25 0.29 0.31 0.32 0.32 0.31 0.24 0.21 0.19 0.14 0.09 0.06 0.05 0.03 0.03 0.03 0.02 0.02
0.00 0.00 0.00 0.00 0.00 0.00 0.00 0.01 0.01 0.00 0.01 0.01 0.01 0.01 0.02 0.02 0.02 0.02 0.03 0.04 0.05 0.06 0.05 0.05 0.07 0.08 0.08 0.11 0.17 0.17 0.16 0.16 0.16 0.16 0.17 0.17 0.20 0.20 0.15 0.14 0.13 0.10 0.06 0.05 0.04 0.02 0.02 0.03 0.02
0.00 0.00 0.00 0.00 0.00 0.00 0.00 0.01 0.02 0.01 0.01 0.01 0.01 0.02 0.02 0.01 0.02 0.03 0.03 0.02 0.01 0.01 0.02 0.02 0.03 0.04 0.04 0.04 0.04 0.06 0.07 0.08 0.08 0.08 0.08 0.10 0.12 0.14 0.13 0.12 0.12 0.10 0.08 0.06 0.04 0.04 0.03 0.04 0.03
0.00 0.00 0.00 0.00 0.00 0.00 0.00 0.01 0.03 0.01 0.02 0.02 0.02 0.03 0.02 0.01 0.01 0.02 0.02 0.01 0.01 0.01 0.01 0.01 0.02 0.02 0.02 0.02 0.02 0.03 0.04 0.04 0.05 0.05 0.06 0.06 0.07 0.08 0.09 0.08 0.06 0.06 0.07 0.08 0.07 0.06 0.06 0.05 0.05
0.01 0.00 0.00 0.00 0.00 0.01 0.00 0.02 0.03 0.01 0.01 0.01 0.02 0.03 0.02 0.01 0.01 0.01 0.01 0.01 0.01 0.01 0.00 0.00 0.01 0.01 0.01 0.01 0.01 0.01 0.02 0.02 0.03 0.03 0.03 0.03 0.04 0.05 0.07 0.06 0.06 0.06 0.05 0.04 0.05 0.06 0.06 0.06 0.07
0.00 0.00 0.00 0.00 0.00 0.01 0.02 0.04 0.03 0.01 0.01 0.03 0.04 0.03 0.02 0.01 0.00 0.00 0.01 0.01 0.01 0.01 0.01 0.01 0.01 0.01 0.01 0.01 0.01 0.02 0.02 0.01 0.01 0.01 0.01 0.01 0.01 0.02 0.02 0.03 0.04 0.05 0.05 0.04 0.04 0.04 0.04 0.05 0.06
0.00 0.00 0.00 0.00 0.01 0.02 0.04 0.05 0.03 0.02 0.03 0.03 0.02 0.01 0.01 0.00 0.01 0.01 0.01 0.01 0.00 0.00 0.00 0.01 0.01 0.01 0.01 0.01 0.01 0.01 0.01 0.01 0.01 0.01 0.01 0.01 0.01 0.01 0.01 0.01 0.02 0.02 0.03 0.03 0.03 0.03 0.03 0.04 0.04
0.00 0.00 0.00 0.01 0.02 0.02 0.03 0.06 0.06 0.02 0.01 0.01 0.00 0.00 0.00 0.00 0.00 0.00 0.00 0.00 0.00 0.00 0.00 0.00 0.01 0.01 0.01 0.01 0.01 0.00 0.01 0.01 0.01 0.01 0.01 0.01 0.01 0.01 0.01 0.01 0.01 0.01 0.01 0.01 0.02 0.02 0.02 0.03 0.03
0.00 0.00 0.00 0.00 0.01 0.02 0.02 0.03 0.02 0.01 0.00 0.00 0.00 0.00 0.00 0.00 0.00 0.00 0.00 0.00 0.00 0.00 0.00 0.00 0.00 0.00 0.00 0.00 0.00 0.00 0.00 0.00 0.00 0.00 0.01 0.01 0.01 0.01 0.01 0.01 0.01 0.00 0.00 0.01 0.01 0.01 0.01 0.02 0.02
0.00 0.00 0.00 0.01 0.01 0.01 0.01 0.01 0.00 0.00 0.00 0.00 0.00 0.00 0.00 0.00 0.00 0.00 0.00 0.00 0.00 0.00 0.00 0.00 0.00 0.00 0.00 0.00 0.00 0.00 0.00 0.01 0.01 0.01 0.01 0.01 0.01 0.01 0.01 0.00 0.00 0.00 0.00 0.01 0.01 0.01 0.01 0.01 0.01
MSLP
1012.14 1012.68 1013.12 1013.34 1013.27 1012.91 1012.29 1011.51 1010.68 1009.94 1009.38 1009.01 1008.82 1008.75 1008.69 1008.58 1008.37 1008.07 1007.75 1007.51 1007.44 1007.63 1008.08 1008.76 1009.58 1010.40 1011.11 1011.61 1011.89 1011.96 1011.92 1011.87 1011.90 1012.08 1012.42 1012.89 1013.41 1013.90 1014.29 1014.54 1014.66 1014.69 1014.69 1014.72 1014.83 1015.01 1015.26 1015.53 1015.77
1012.11 1012.63 1013.02 1013.16 1012.99 1012.51 1011.78 1010.90 1009.99 1009.18 1008.55 1008.15 1007.94 1007.86 1007.82 1007.75 1007.61 1007.40 1007.19 1007.07 1007.13 1007.42 1007.96 1008.72 1009.58 1010.43 1011.16 1011.68 1011.98 1012.08 1012.07 1012.04 1012.09 1012.28 1012.61 1013.04 1013.51 1013.94 1014.28 1014.49 1014.60 1014.64 1014.68 1014.77 1014.94 1015.19 1015.48 1015.76 1015.99
1012.08 1012.56 1012.85 1012.88 1012.60 1012.02 1011.21 1010.26 1009.31 1008.47 1007.84 1007.44 1007.23 1007.17 1007.16 1007.14 1007.06 1006.94 1006.84 1006.82 1006.98 1007.36 1007.97 1008.76 1009.64 1010.50 1011.22 1011.76 1012.08 1012.22 1012.25 1012.26 1012.34 1012.53 1012.84 1013.22 1013.62 1013.98 1014.25 1014.43 1014.52 1014.59 1014.68 1014.84 1015.07 1015.38 1015.70 1016.00 1016.21
1012.10 1012.49 1012.67 1012.57 1012.17 1011.50 1010.63 1009.66 1008.72 1007.91 1007.32 1006.95 1006.78 1006.75 1006.78 1006.80 1006.79 1006.74 1006.72 1006.79 1007.02 1007.46 1008.10 1008.89 1009.76 1010.60 1011.31 1011.84 1012.18 1012.36 1012.44 1012.50 1012.61 1012.80 1013.08 1013.41 1013.74 1014.03 1014.24 1014.38 1014.46 1014.55 1014.69 1014.91 1015.20 1015.55 1015.90 1016.20 1016.39
1012.21 1012.46 1012.49 1012.25 1011.74 1011.00 1010.10 1009.15 1008.26 1007.52 1007.00 1006.69 1006.57 1006.58 1006.65 1006.71 1006.75 1006.76 1006.80 1006.94 1007.22 1007.68 1008.32 1009.09 1009.92 1010.72 1011.39 1011.91 1012.26 1012.47 1012.59 1012.70 1012.84 1013.04 1013.30 1013.59 1013.87 1014.09 1014.25 1014.35 1014.43 1014.54 1014.71 1014.97 1015.31 1015.68 1016.04 1016.32 1016.48
1012.36 1012.46 1012.32 1011.94 1011.33 1010.53 1009.64 1008.74 1007.93 1007.29 1006.86 1006.63 1006.56 1006.61 1006.70 1006.78 1006.85 1006.90 1006.99 1007.16 1007.46 1007.93 1008.55 1009.29 1010.06 1010.79 1011.43 1011.92 1012.27 1012.50 1012.67 1012.81 1012.99 1013.21 1013.47 1013.73 1013.96 1014.14 1014.25 1014.33 1014.40 1014.52 1014.71 1014.99 1015.34 1015.72 1016.06 1016.32 1016.44
1012.48 1012.42 1012.12 1011.61 1010.91 1010.10 1009.24 1008.42 1007.71 1007.18 1006.84 1006.67 1006.65 1006.71 1006.80 1006.89 1006.97 1007.04 1007.15 1007.35 1007.67 1008.13 1008.73 1009.41 1010.12 1010.79 1011.37 1011.83 1012.17 1012.42 1012.62 1012.81 1013.02 1013.27 1013.53 1013.78 1013.99 1014.14 1014.23 1014.29 1014.36 1014.47 1014.66 1014.93 1015.26 1015.61 1015.93 1016.14 1016.23
1012.49 1012.27 1011.83 1011.22 1010.48 1009.67 1008.88 1008.15 1007.55 1007.12 1006.86 1006.74 1006.74 1006.79 1006.87 1006.94 1007.01 1007.09 1007.22 1007.43 1007.77 1008.22 1008.79 1009.43 1010.08 1010.69 1011.21 1011.64 1011.97 1012.22 1012.44 1012.67 1012.91 1013.18 1013.45 1013.71 1013.91 1014.06 1014.15 1014.20 1014.25 1014.35 1014.52 1014.76 1015.05 1015.35 1015.61 1015.79 1015.85
1012.30 1011.96 1011.43 1010.76 1010.02 1009.26 1008.55 1007.93 1007.44 1007.10 1006.90 1006.81 1006.79 1006.82 1006.86 1006.90 1006.95 1007.03 1007.17 1007.41 1007.75 1008.21 1008.76 1009.35 1009.95 1010.50 1010.98 1011.36 1011.66 1011.92 1012.15 1012.39 1012.66 1012.94 1013.24 1013.50 1013.72 1013.87 1013.96 1014.01 1014.06 1014.14 1014.28 1014.47 1014.70 1014.94 1015.15 1015.27 1015.31
1011.90 1011.49 1010.91 1010.25 1009.55 1008.87 1008.27 1007.77 1007.38 1007.12 1006.96 1006.87 1006.83 1006.81 1006.80 1006.81 1006.84 1006.92 1007.08 1007.33 1007.70 1008.15 1008.69 1009.25 1009.79 1010.29 1010.70 1011.04 1011.31 1011.55 1011.77 1012.01 1012.28 1012.58 1012.88 1013.16 1013.39 1013.55 1013.66 1013.72 1013.77 1013.83 1013.93 1014.07 1014.24 1014.42 1014.56 1014.65 1014.66
1011.33 1010.90 1010.34 1009.73 1009.12 1008.56 1008.08 1007.71 1007.42 1007.23 1007.09 1006.99 1006.91 1006.84 1006.79 1006.76 1006.77 1006.86 1007.03 1007.31 1007.69 1008.15 1008.66 1009.18 1009.68 1010.11 1010.47 1010.75 1010.97 1011.17 1011.36 1011.58 1011.84 1012.12 1012.41 1012.69 1012.93 1013.11 1013.23 1013.31 1013.36 1013.42 1013.49 1013.59 1013.71 1013.83 1013.93 1013.98 1013.98
1010.70 1010.29 1009.80 1009.28 1008.80 1008.38 1008.04 1007.79 1007.60 1007.46 1007.34 1007.23 1007.11 1007.01 1006.92 1006.86 1006.87 1006.97 1007.16 1007.46 1007.84 1008.29 1008.77 1009.25 1009.68 1010.04 1010.33 1010.54 1010.70 1010.84 1010.98 1011.15 1011.36 1011.61 1011.87 1012.13 1012.36 1012.55 1012.69 1012.79 1012.86 1012.92 1012.98 1013.06 1013.15 1013.24 1013.30 1013.33 1013.33
1010.13 1009.78 1009.38 1008.98 1008.64 1008.37 1008.18 1008.04 1007.94 1007.86 1007.76 1007.64 1007.51 1007.38 1007.27 1007.22 1007.23 1007.34 1007.54 1007.84 1008.21 1008.63 1009.06 1009.47 1009.82 1010.11 1010.31 1010.45 1010.53 1010.59 1010.66 1010.76 1010.90 1011.08 1011.29 1011.51 1011.72 1011.90 1012.05 1012.17 1012.27 1012.35 1012.43 1012.52 1012.60 1012.68 1012.74 1012.76 1012.76
1009.74 1009.45 1009.15 1008.88 1008.67 1008.55 1008.48 1008.46 1008.45 1008.41 1008.35 1008.24 1008.12 1007.99 1007.89 1007.84 1007.88 1007.99 1008.20 1008.48 1008.81 1009.17 1009.53 1009.85 1010.11 1010.30 1010.41 1010.47 1010.47 1010.45 1010.44 1010.45 1010.50 1010.59 1010.72 1010.87 1011.03 1011.20 1011.35 1011.49 1011.62 1011.74 1011.86 1011.98 1012.09 1012.18 1012.26 1012.30 1012.31
1009.55 1009.33 1009.11 1008.95 1008.87 1008.86 1008.92 1008.99 1009.05 1009.08 1009.05 1008.98 1008.89 1008.79 1008.72 1008.70 1008.74 1008.87 1009.05 1009.30 1009.57 1009.84 1010.10 1010.32 1010.48 1010.57 1010.60 1010.56 1010.49 1010.39 1010.29 1010.21 1010.15 1010.14 1010.17 1010.24 1010.34 1010.47 1010.61 1010.76 1010.93 1011.10 1011.27 1011.44 1011.60 1011.74 1011.85 1011.92 1011.96
1009.56 1009.37 1009.22 1009.14 1009.15 1009.25 1009.40 1009.55 1009.69 1009.78 1009.80 1009.78 1009.73 1009.68 1009.65 1009.66 1009.73 1009.84 1010.00 1010.18 1010.36 1010.53 1010.68 1010.78 1010.84 1010.84 1010.79 1010.69 1010.56 1010.39 1010.21 1010.04 1009.88 1009.76 1009.68 1009.66 1009.68 1009.76 1009.88 1010.04 1010.23 1010.45 1010.68 1010.91 1011.13 1011.33 1011.49 1011.61 1011.69
1009.66 1009.49 1009.38 1009.36 1009.45 1009.63 1009.85 1010.08 1010.28 1010.42 1010.51 1010.55 1010.55 1010.56 1010.57 1010.62 1010.69 1010.79 1010.89 1011.00 1011.08 1011.14 1011.17 1011.16 1011.12 1011.05 1010.94 1010.80 1010.62 1010.41 1010.17 1009.93 1009.68 1009.46 1009.28 1009.15 1009.09 1009.11 1009.20 1009.36 1009.58 1009.83 1010.11 1010.40 1010.68 1010.93 1011.15 1011.32 1011.45
1009.75 1009.59 1009.51 1009.54 1009.69 1009.93 1010.21 1010.50 1010.76 1010.97 1011.11 1011.20 1011.27 1011.32 1011.38 1011.44 1011.51 1011.58 1011.63 1011.65 1011.63 1011.58 1011.50 1011.40 1011.29 1011.16 1011.02 1010.86 1010.67 1010.44 1010.17 1009.87 1009.55 1009.24 1008.97 1008.76 1008.63 1008.59 1008.64 1008.79 1009.01 1009.28 1009.60 1009.92 1010.25 1010.55 1010.82 1011.04 1011.20
1009.75 1009.59 1009.55 1009.64 1009.84 1010.14 1010.49 1010.83 1011.15 1011.40 1011.59 1011.73 1011.84 1011.92 1012.00 1012.08 1012.13 1012.16 1012.14 1012.08 1011.97 1011.82 1011.66 1011.49 1011.33 1011.18 1011.03 1010.87 1010.69 1010.46 1010.18 1009.86 1009.50 1009.13 1008.79 1008.52 1008.32 1008.23 1008.25 1008.37 1008.59 1008.86 1009.19 1009.53 1009.87 1010.19 1010.48 1010.74 1010.94
1009.60 1009.48 1009.49 1009.65 1009.93 1010.30 1010.70 1011.10 1011.46 1011.74 1011.97 1012.13 1012.26 1012.36 1012.44 1012.50 1012.52 1012.50 1012.43 1012.29 1012.10 1011.89 1011.66 1011.45 1011.27 1011.12 1010.99 1010.86 1010.70 1010.50 1010.23 1009.90 1009.53 1009.13 1008.76 1008.44 1008.21 1008.08 1008.07 1008.17 1008.37 1008.63 1008.93 1009.25 1009.58 1009.89 1010.18 1010.44 1010.66
1009.35 1009.29 1009.39 1009.63 1010.00 1010.45 1010.92 1011.37 1011.76 1012.06 1012.29 1012.45 1012.57 1012.65 1012.71 1012.74 1012.72 1012.66 1012.53 1012.34 1012.10 1011.84 1011.58 1011.36 1011.17 1011.04 1010.93 1010.83 1010.71 1010.54 1010.31 1010.00 1009.63 1009.24 1008.86 1008.54 1008.30 1008.16 1008.14 1008.22 1008.39 1008.62 1008.88 1009.15 1009.43 1009.69 1009.94 1010.17 1010.39
1009.08 1009.12 1009.32 1009.68 1010.15 1010.68 1011.22 1011.70 1012.11 1012.41 1012.62 1012.75 1012.83 1012.87 1012.88 1012.86 1012.80 1012.69 1012.52 1012.29 1012.03 1011.75 1011.49 1011.26 1011.09 1010.98 1010.90 1010.83 1010.74 1010.61 1010.40 1010.12 1009.79 1009.42 1009.07 1008.77 1008.55 1008.43 1008.42 1008.49 1008.64 1008.82 1009.03 1009.23 1009.42 1009.61 1009.79 1009.96 1010.15
1008.92 1009.07 1009.39 1009.87 1010.44 1011.05 1011.64 1012.14 1012.54 1012.81 1012.97 1013.05 1013.06 1013.04 1012.99 1012.92 1012.81 1012.67 1012.47 1012.23 1011.96 1011.68 1011.43 1011.21 1011.06 1010.96 1010.89 1010.84 1010.78 1010.66 1010.48 1010.24 1009.94 1009.63 1009.33 1009.08 1008.91 1008.83 1008.84 1008.92 1009.05 1009.19 1009.34 1009.46 1009.56 1009.65 1009.73 1009.83 1009.95
1008.95 1009.21 1009.66 1010.24 1010.90 1011.56 1012.17 1012.68 1013.04 1013.26 1013.36 1013.36 1013.30 1013.20 1013.09 1012.96 1012.82 1012.64 1012.43 1012.19 1011.93 1011.67 1011.42 1011.22 1011.07 1010.97 1010.91 1010.85 1010.78 1010.68 1010.51 1010.30 1010.04 1009.78 1009.55 1009.37 1009.26 1009.24 1009.29 1009.39 1009.52 1009.63 1009.72 1009.77 1009.78 1009.77 1009.76 1009.76 1009.81
1009.23 1009.60 1010.13 1010.79 1011.49 1012.18 1012.78 1013.25 1013.56 1013.72 1013.73 1013.66 1013.52 1013.35 1013.18 1013.01 1012.83 1012.64 1012.43 1012.20 1011.95 1011.70 1011.47 1011.27 1011.12 1011.00 1010.91 1010.83 1010.74 1010.61 1010.45 1010.25 1010.03 1009.82 1009.65 1009.54 1009.50 1009.54 1009.64 1009.78 1009.92 1010.02 1010.07 1010.07 1010.01 1009.92 1009.82 1009.74 1009.71
1009.76 1010.19 1010.78 1011.46 1012.17 1012.84 1013.40 1013.80 1014.04 1014.12 1014.06 1013.90 1013.70 1013.48 1013.26 1013.06 1012.87 1012.67 1012.47 1012.25 1012.01 1011.78 1011.55 1011.34 1011.16 1011.01 1010.87 1010.75 1010.61 1010.45 1010.27 1010.06 1009.86 1009.69 1009.56 1009.51 1009.54 1009.64 1009.79 1009.96 1010.12 1010.23 1010.27 1010.24 1010.15 1010.00 1009.85 1009.71 1009.62
1010.47 1010.93 1011.52 1012.18 1012.85 1013.44 1013.93 1014.25 1014.41 1014.41 1014.28 1014.07 1013.82 1013.57 1013.33 1013.11 1012.91 1012.72 1012.52 1012.31 1012.09 1011.86 1011.62 1011.39 1011.18 1010.97 1010.79 1010.59 1010.40 1010.18 1009.96 1009.73 1009.53 1009.37 1009.27 1009.25 1009.32 1009.46 1009.65 1009.85 1010.04 1010.17 1010.23 1010.21 1010.11 1009.97 1009.80 1009.64 1009.51
1011.28 1011.73 1012.28 1012.87 1013.44 1013.94 1014.32 1014.56 1014.63 1014.56 1014.39 1014.15 1013.88 1013.61 1013.36 1013.15 1012.96 1012.77 1012.59 1012.39 1012.16 1011.92 1011.67 1011.41 1011.15 1010.90 1010.64 1010.38 1010.11 1009.84 1009.56 1009.29 1009.06 1008.88 1008.77 1008.76 1008.83 1008.98 1009.19 1009.42 1009.63 1009.79 1009.89 1009.91 1009.86 1009.76 1009.62 1009.48 1009.36
1012.08 1012.49 1012.96 1013.45 1013.91 1014.29 1014.56 1014.70 1014.70 1014.59 1014.39 1014.14 1013.87 1013.62 1013.39 1013.19 1013.00 1012.83 1012.65 1012.45 1012.22 1011.97 1011.69 1011.40 1011.10 1010.79 1010.47 1010.14 1009.80 1009.45 1009.11 1008.78 1008.49 1008.27 1008.13 1008.08 1008.12 1008.26 1008.45 1008.68 1008.92 1009.12 1009.27 1009.36 1009.38 1009.36 1009.29 1009.21 1009.14
1012.81 1013.16 1013.53 1013.91 1014.24 1014.50 1014.66 1014.71 1014.66 1014.52 1014.32 1014.08 1013.84 1013.62 1013.41 1013.23 1013.05 1012.88 1012.70 1012.49 1012.25 1011.98 1011.68 1011.37 1011.03 1010.67 1010.29 1009.90 1009.49 1009.08 1008.66 1008.26 1007.91 1007.62 1007.41 1007.30 1007.29 1007.37 1007.54 1007.75 1008.00 1008.23 1008.44 1008.61 1008.73 1008.80 1008.84 1008.85 1008.85
Thickness
5833 5835 5837 5830 5821 5824 5830 5842 5851 5853 5857 5866 5866 5861 5856 5852 5845 5840 5860 5869 5865 5858 5848 5834 5828 5823 5819 5815 5812 5809 5806 5802 5799 5795 5792 5789 5786 5784 5781 5779 5777 5774 5772 5770 5768 5766 5764 5763 5761
5839 5838 5832 5827 5823 5827 5832 5846 5848 5852 5861 5867 5866 5862 5858 5858 5863 5860 5862 5864 5862 5856 5846 5835 5826 5821 5817 5813 5809 5806 5803 5800 5797 5793 5790 5787 5784 5782 5779 5777 5775 5773 5771 5769 5767 5765 5763 5761 5759
5840 5838 5830 5828 5827 5827 5831 5847 5851 5860 5867 5865 5861 5864 5859 5856 5860 5861 5863 5861 5858 5852 5844 5833 5823 5818 5814 5810 5807 5803 5800 5797 5794 5791 5788 5785 5783 5780 5778 5775 5773 5771 5769 5767 5765 5763 5761 5759 5758
5836 5830 5829 5826 5828 5839 5843 5851 5858 5859 5865 5867 5863 5858 5861 5861 5862 5863 5861 5859 5853 5848 5842 5830 5821 5815 5811 5807 5804 5801 5797 5795 5792 5788 5785 5783 5780 5778 5776 5773 5771 5769 5767 5765 5763 5761 5759 5757 5755
5836 5831 5827 5829 5835 5845 5854 5859 5862 5858 5860 5864 5862 5854 5854 5860 5863 5861 5857 5855 5850 5845 5840 5828 5817 5812 5808 5804 5801 5797 5794 5791 5788 5785 5783 5780 5777 5775 5773 5771 5769 5767 5765 5763 5761 5759 5757 5755 5753
5828 5830 5823 5827 5835 5845 5855 5863 5862 5858 5860 5863 5860 5854 5853 5858 5857 5855 5854 5850 5848 5842 5837 5825 5813 5809 5804 5801 5797 5794 5791 5788 5785 5782 5779 5776 5774 5771 5770 5768 5766 5764 5762 5761 5759 5757 5755 5753 5751
5823 5825 5824 5827 5830 5837 5849 5861 5858 5855 5855 5860 5864 5853 5852 5852 5854 5853 5849 5845 5844 5839 5834 5823 5813 5806 5800 5796 5793 5790 5787 5784 5781 5778 5775 5772 5770 5768 5766 5765 5763 5761 5759 5758 5756 5755 5753 5751 5749
5829 5825 5824 5829 5826 5832 5851 5858 5860 5856 5856 5868 5865 5851 5849 5852 5852 5849 5843 5840 5838 5834 5830 5822 5815 5808 5802 5796 5790 5787 5784 5781 5778 5775 5772 5769 5767 5765 5763 5762 5760 5758 5756 5755 5754 5752 5751 5749 5747
5824 5813 5817 5827 5824 5832 5848 5847 5855 5864 5860 5860 5862 5858 5859 5856 5850 5841 5833 5830 5826 5824 5823 5819 5815 5807 5802 5798 5791 5785 5781 5778 5774 5771 5768 5766 5767 5767 5764 5761 5759 5756 5753 5752 5752 5750 5749 5747 5746
5817 5809 5821 5833 5832 5833 5839 5840 5846 5850 5848 5849 5851 5851 5852 5847 5842 5835 5829 5824 5820 5817 5816 5814 5812 5805 5800 5796 5791 5786 5782 5778 5773 5773 5769 5766 5766 5765 5764 5761 5757 5754 5751 5750 5749 5748 5747 5746 5748
5816 5813 5825 5830 5835 5835 5834 5838 5845 5839 5835 5837 5838 5842 5841 5839 5836 5833 5829 5826 5822 5817 5812 5808 5806 5801 5797 5793 5789 5785 5781 5777 5772 5770 5766 5763 5763 5762 5760 5759 5756 5753 5751 5750 5751 5749 5749 5749 5748
5812 5818 5822 5826 5833 5829 5828 5833 5834 5830 5827 5837 5842 5843 5838 5833 5832 5830 5826 5823 5819 5813 5808 5805 5801 5795 5791 5788 5785 5781 5777 5774 5770 5766 5762 5760 5758 5756 5756 5754 5754 5752 5751 5750 5750 5750 5750 5748 5746
5807 5813 5821 5827 5829 5829 5827 5825 5823 5818 5825 5832 5835 5834 5832 5830 5828 5826 5824 5819 5815 5808 5803 5800 5795 5789 5785 5780 5777 5776 5773 5771 5767 5762 5758 5756 5754 5752 5752 5750 5748 5749 5749 5748 5747 5748 5747 5746 5745
5810 5812 5816 5821 5822 5824 5818 5817 5812 5807 5817 5819 5819 5819 5821 5820 5819 5817 5814 5810 5807 5802 5798 5794 5789 5784 5779 5774 5769 5768 5767 5763 5761 5757 5753 5750 5749 5748 5747 5746 5745 5745 5745 5744 5743 5744 5743 5743 5743
5808 5803 5810 5815 5816 5818 5813 5798 5792 5799 5806 5803 5802 5802 5802 5803 5805 5803 5802 5800 5799 5795 5791 5786 5781 5779 5773 5769 5765 5761 5759 5757 5754 5750 5746 5743 5742 5741 5741 5739 5739 5739 5739 5739 5739 5741 5741 5740 5741
5801 5797 5795 5804 5809 5811 5803 5785 5782 5793 5792 5787 5787 5787 5786 5786 5788 5789 5790 5789 5789 5787 5783 5779 5776 5771 5766 5762 5759 5754 5751 5748 5744 5741 5739 5736 5734 5733 5733 5734 5735 5733 5734 5735 5736 5737 5737 5737 5738
5792 5788 5788 5794 5800 5802 5798 5776 5773 5783 5781 5774 5773 5774 5774 5773 5774 5775 5777 5778 5777 5774 5771 5767 5764 5761 5757 5753 5749 5745 5742 5738 5735 5732 5730 5729 5727 5727 5726 5728 5730 5728 5729 5730 5732 5734 5733 5733 5734
5780 5784 5783 5784 5791 5791 5780 5767 5765 5769 5768 5764 5763 5762 5761 5760 5759 5763 5765 5765 5764 5762 5759 5755 5753 5750 5745 5742 5738 5735 5733 5730 5727 5725 5723 5721 5721 5720 5719 5722 5722 5722 5722 5723 5725 5726 5727 5729 5729
5784 5780 5778 5781 5786 5780 5769 5760 5758 5760 5760 5755 5753 5751 5750 5749 5752 5754 5754 5753 5752 5749 5746 5743 5741 5739 5735 5731 5728 5726 5723 5722 5721 5719 5717 5716 5714 5713 5713 5715 5716 5715 5716 5718 5720 5721 5722 5723 5726
5781 5777 5778 5779 5781 5776 5764 5756 5754 5752 5748 5746 5744 5743 5742 5742 5742 5742 5742 5741 5739 5737 5736 5734 5731 5729 5725 5723 5719 5716 5714 5714 5714 5714 5712 5710 5709 5707 5709 5709 5711 5710 5710 5712 5713 5714 5717 5721 5722
5780 5779 5779 5775 5775 5775 5765 5752 5748 5746 5744 5741 5738 5737 5736 5733 5732 5731 5730 5729 5728 5726 5725 5724 5720 5718 5716 5713 5712 5709 5706 5707 5708 5706 5705 5703 5702 5703 5703 5706 5707 5707 5708 5709 5709 5710 5709 5712 5716
5776 5786 5781 5775 5767 5769 5766 5749 5741 5741 5735 5732 5730 5729 5727 5727 5725 5723 5721 5719 5718 5716 5715 5712 5710 5707 5706 5704 5702 5700 5698 5697 5697 5697 5697 5696 5695 5695 5697 5699 5701 5701 5703 5704 5705 5708 5708 5706 5709
5779 5784 5780 5775 5770 5765 5766 5755 5737 5740 5726 5723 5723 5721 5720 5719 5717 5714 5713 5710 5710 5708 5706 5703 5700 5697 5696 5694 5692 5690 5690 5690 5691 5690 5687 5687 5689 5689 5690 5691 5693 5694 5696 5697 5699 5701 5701 5703 5704
5781 5778 5776 5775 5773 5752 5755 5747 5725 5725 5717 5716 5717 5715 5714 5712 5711 5708 5706 5703 5701 5700 5697 5694 5690 5687 5685 5683 5682 5680 5679 5679 5679 5678 5678 5678 5680 5680 5681 5682 5683 5684 5687 5688 5689 5691 5693 5695 5698
5777 5765 5753 5749 5748 5744 5750 5737 5711 5714 5715 5712 5709 5708 5707 5706 5704 5701 5698 5695 5691 5689 5687 5684 5681 5677 5676 5674 5672 5670 5669 5668 5667 5667 5668 5668 5670 5671 5670 5671 5671 5673 5675 5676 5679 5681 5685 5687 5688
5765 5759 5741 5727 5736 5743 5743 5723 5708 5713 5711 5709 5705 5702 5700 5698 5696 5692 5690 5686 5682 5679 5676 5673 5670 5667 5665 5663 5661 5659 5658 5658 5659 5657 5656 5657 5657 5659 5659 5659 5659 5661 5662 5665 5667 5671 5675 5678 5680
5758 5755 5756 5744 5746 5734 5731 5715 5706 5709 5705 5701 5698 5694 5691 5688 5686 5683 5681 5677 5672 5668 5665 5662 5658 5655 5653 5651 5649 5647 5646 5644 5644 5643 5643 5645 5644 5645 5646 5646 5646 5647 5649 5652 5655 5658 5662 5666 5669
5760 5753 5750 5738 5718 5717 5723 5711 5700 5697 5695 5694 5690 5686 5683 5681 5678 5674 5671 5667 5663 5659 5655 5652 5648 5644 5642 5640 5637 5636 5634 5631 5630 5629 5629 5629 5629 5629 5630 5631 5632 5633 5635 5637 5640 5644 5649 5652 5656
5746 5743 5740 5738 5726 5711 5705 5702 5705 5694 5690 5686 5684 5680 5676 5673 5669 5666 5662 5657 5653 5649 5645 5640 5636 5632 5629 5626 5623 5620 5618 5616 5614 5613 5614 5614 5614 5615 5615 5615 5617 5619 5620 5623 5625 5630 5635 5639 5643
5740 5732 5731 5718 5708 5710 5705 5700 5703 5694 5688 5682 5678 5674 5670 5665 5661 5656 5651 5646 5641 5636 5632 5628 5624 5619 5616 5612 5608 5605 5602 5600 5598 5598 5598 5598 5598 5599 5600 5600 5602 5604 5606 5608 5611 5614 5620 5624 5628